Whitefield, NH

5:13 PM EDT on April 28, 2017 (GMT -0400)
Mount Washington Regional

Weather History for KHIE - January, 2013

Change the Weather History Date:

Monday, January 21, 2013

  Actual Average Record
Temperature  
Mean Temperature 6 °F -  
Max Temperature 17 °F 20 °F 55 °F (2006)
Min Temperature -6 °F 0 °F -20 °F (2005)
Degree Days  
Heating Degree Days 60    
Moisture  
Dew Point -1 °F    
Average Humidity 63    
Maximum Humidity 80    
Minimum Humidity 37    
Precipitation  
Precipitation 0.00 in - - ()
Sea Level Pressure  
Sea Level Pressure 29.95 in    
Wind  
Wind Speed 4 mph (WNW)    
Max Wind Speed 9 mph    
Max Gust Speed 16 mph    
Visibility 10 miles    
Events Snow    
Averages and records for this station are not official NWS values.
T = Trace of Precipitation, MM = Missing Value Source: NWS Daily Summary

Daily Weather History Graph

Daily Weather History Graph

Search for Another Location

Airport or City:

Trip Planner

Search our weather history database for the weather conditions in past years. The results will help you decide how hot, cold, wet, or windy it might be!

Date:

Astronomy

Jan. 21, 2013 Rise Set
Actual Time 7:14 AM EST 4:40 PM EST
Civil Twilight 6:42 AM EST 5:12 PM EST
Nautical Twilight 6:07 AM EST 5:48 PM EST
Astronomical Twilight 5:32 AM EST 6:22 PM EST
Moon 12:17 PM EST (1/21) 2:40 AM EST (1/21)
Length of Visible Light 10h 29m
Length of Day
9h 26m
Waxing Gibbous, 75% of the Moon is Illuminated
Jan 21
Waxing Gibbous
Jan 26
Full
Feb 3
Last Quarter
Feb 10
New
Feb 17
First Quarter

Hourly Weather History & Observations

Time (EST) Temp. Windchill Dew Point Humidity Pressure Visibility Wind Dir Wind Speed Gust Speed Precip Events Conditions
12:52 AM 10.0 °F -0.9 °F -0.0 °F 64% 29.91 in 10.0 mi West 6.9 mph 16.1 mph N/A   Partly Cloudy
1:52 AM 9.0 °F -0.9 °F -0.9 °F 64% 29.94 in 10.0 mi West 5.8 mph - N/A   Mostly Cloudy
2:52 AM 7.0 °F - -2.0 °F 67% 29.95 in 10.0 mi Calm Calm - N/A   Overcast
3:52 AM 3.0 °F -6.4 °F -2.0 °F 80% 29.97 in 10.0 mi NW 4.6 mph - N/A   Partly Cloudy
4:52 AM 3.0 °F -9.3 °F -4.0 °F 73% 29.98 in 10.0 mi West 6.9 mph - N/A   Clear
5:52 AM -0.0 °F - -6.0 °F 76% 30.00 in 10.0 mi Calm Calm - N/A   Clear
6:52 AM -4.0 °F - -9.0 °F 79% 30.02 in 10.0 mi Calm Calm - N/A   Clear
7:52 AM -6.0 °F - -11.0 °F 79% 30.04 in 6.0 mi Calm Calm - N/A   Haze
8:52 AM -2.9 °F - -9.0 °F 75% 30.05 in 10.0 mi Calm Calm - N/A   Clear
9:52 AM 8.1 °F - -2.0 °F 64% 30.05 in 10.0 mi Calm Calm - N/A   Clear
10:52 AM 12.0 °F - -0.9 °F 56% 30.03 in 10.0 mi Calm Calm - N/A   Clear
11:52 AM 15.1 °F 3.3 °F -2.9 °F 45% 30.00 in 10.0 mi West 9.2 mph - N/A   Partly Cloudy
12:52 PM 17.1 °F 6.6 °F -2.9 °F 41% 29.95 in 10.0 mi WNW 8.1 mph - N/A   Clear
1:52 PM 17.1 °F 7.6 °F -5.1 °F 37% 29.94 in 10.0 mi SW 6.9 mph - N/A   Clear
2:52 PM 17.1 °F 7.6 °F -2.9 °F 41% 29.94 in 10.0 mi West 6.9 mph - N/A   Mostly Cloudy
3:52 PM 17.1 °F 8.7 °F -2.0 °F 43% 29.93 in 10.0 mi West 5.8 mph - N/A   Overcast
4:52 PM 17.1 °F - -0.0 °F 47% 29.92 in 10.0 mi Calm Calm - N/A   Overcast
5:52 PM 16.0 °F - 3.0 °F 57% 29.93 in 10.0 mi Calm Calm - N/A   Overcast
6:52 PM 16.0 °F - 1.9 °F 54% 29.94 in 10.0 mi Calm Calm - N/A   Overcast
8:20 PM 14.0 °F - 8.6 °F 79% 29.85 in 5.0 mi Calm Calm - 0.00 in Snow Light Snow
8:52 PM 14.0 °F 8.2 °F 8.1 °F 77% 29.92 in 8.0 mi NE 3.5 mph - 0.00 in Snow Light Snow
9:52 PM 12.0 °F 4.1 °F 7.0 °F 80% 29.88 in 10.0 mi North 4.6 mph - 0.00 in   Overcast
11:52 PM 8.1 °F -2.0 °F 3.0 °F 80% 29.80 in 10.0 mi NNE 5.8 mph - N/A   Scattered Clouds